Location: *
(43.9900°N, 3.4811°E)
Time: 21:17:47
(UTC+00:00)

Cosmos 1500 - Pass Details

Date: 25 August 2019
Orbit: 500 x 520 km, 82.5° (Epoch: 22 October)

Event Time Altitude Azimuth Distance (km) Brightness Sun altitude
Exits shadow 20:14:19 - 193° (SSW) 2,001 6.0 -17.0°
Reaches altitude 10° 20:14:56 10° 194° (SSW) 1,749 5.7 -17.1°
Maximum altitude 20:18:46 71° 278° (W) 552 3.4 -17.7°
Drops below altitude 10° 20:22:37 10° 4° (N) 1,757 6.3 -18.2°
Sets 20:24:46 0° 7° (N) 2,647 7.2 -18.6°
